This demonstration page uses our WeatherBlox Daily Observations layout. Learn more.

39.29038, -76.61219

Hourly Observations for April 19, 2019

Temp ( °F °C ) Dew Point ( °F °C ) Humidity (%) Winds ( mph kmh ) Pressure ( in mb ) Visibility ( mi km ) Precip ( " mm )
12:54 am 00:54 undefined 66 18.9 55 12.8 68 68 undefined N/A 29.82 1010 N/A 0 0
1:54 am 01:54 undefined 66 18.9 55 12.8 68 68 undefined N/A 29.81 1010 N/A 0 0
2:54 am 02:54 undefined 66 18.9 56 13.3 70 70 undefined N/A 29.8 1009 N/A 0 0
4:54 am 04:54 undefined 68 20 57 13.9 68 68 undefined N/A 29.78 1009 N/A 0 0
5:54 am 05:54 undefined 68 20 58 14.4 70 70 undefined N/A 29.77 1008 N/A 0 0
6:54 am 06:54 undefined 65 18.3 58 14.4 78 78 undefined N/A 29.76 1008 N/A 0 0
7:54 am 07:54 undefined 68 20 60 15.6 76 76 undefined N/A 29.78 1009 N/A 0 0
8:54 am 08:54 undefined 69 20.6 60 15.6 73 73 undefined N/A 29.79 1009 N/A 0 0
9:54 am 09:54 undefined 70 21.1 61 16.1 73 73 undefined N/A 29.78 1009 N/A 0 0
10:54 am 10:54 undefined 70 21.1 61 16.1 73 73 undefined N/A 29.76 1008 N/A 0 0
11:54 am 11:54 undefined 72 22.2 62 16.7 71 71 undefined N/A 29.75 1008 N/A 0 0
12:54 pm 12:54 undefined 71 21.7 62 16.7 73 73 undefined N/A 29.75 1007 N/A 0 0
1:54 pm 13:54 undefined 71 21.7 63 17.2 76 76 undefined N/A 29.73 1007 N/A 0.01 0.254
2:54 pm 14:54 undefined 69 20.6 64 17.8 84 84 undefined N/A 29.72 1006 N/A 0 0
3:54 pm 15:54 undefined 68 20 65 18.3 90 90 undefined N/A 29.68 1005 N/A 0.31 7.874
4:54 pm 16:54 undefined 69 20.6 65 18.3 87 87 undefined N/A 29.65 1004 N/A 0.08 2.032
5:54 pm 17:54 undefined 70 21.1 64 17.8 82 82 undefined N/A 29.65 1004 N/A 0 0
6:54 pm 18:54 undefined 69 20.6 64 17.8 84 84 undefined N/A 29.64 1004 N/A 0 0
7:54 pm 19:54 undefined 68 20 64 17.8 87 87 undefined N/A 29.62 1003 N/A 0 0
8:54 pm 20:54 undefined 68 20 64 17.8 87 87 undefined N/A 29.63 1004 N/A 0 0
9:54 pm 21:54 undefined 68 20 65 18.3 90 90 undefined N/A 29.62 1003 N/A 0.03 0.762
10:54 pm 22:54 undefined 68 20 65 18.3 90 90 undefined N/A 29.62 1003 N/A 0 0
11:54 pm 23:54 undefined 67 19.4 62 16.7 84 84 undefined N/A 29.62 1003 N/A 0 0

Powered by AerisWeather